Terug naar catalogus

STARLINK-31747

ActiefCommunicatieVLEO
NORAD 59564·PAYLOAD·🇺🇸 United States

Gelanceerd Apr 23, 2024 vanaf Cape Canaveral Space Force Station

Loading…

Volgende Passages (komende 24 uur)

TLE

VersSource: CelesTrak SupGP

Epoch: Sep 15, 2026, 02:57 UTC

1 59564C 24076A   26258.12340278  .00022052  00000+0  79875-3 0  2585
2 59564  43.0043   8.5956 0001602 273.4533 188.2081 15.27566073    15

Volg STARLINK-31747 in realtime met AllMySat

Download on the App Store